Time,TemperatureF,DewpointF,PressureIn,WindDirection,WindDirectionDegrees,WindSpeedMPH,WindSpeedGustMPH,Humidity,HourlyPrecipIn,Conditions,Clouds,dailyrainin,SoftwareType,DateUTC
2013-01-18 00:12:00,15.2,1.0,30.02,NNE,22,2.0,-999.0,53,-99.99,,,0.00,weatherlink.com 1.10,2013-01-18 05:12:00,
2013-01-18 00:27:00,15.0,0.0,30.03,NNE,29,6.0,-999.0,52,-99.99,,,0.00,weatherlink.com 1.10,2013-01-18 05:27:00,
2013-01-18 00:42:00,14.8,-1.0,30.03,NNE,22,6.0,-999.0,50,-99.99,,,0.00,weatherlink.com 1.10,2013-01-18 05:42:00,
2013-01-18 00:57:00,14.7,-1.0,30.06,NNE,12,3.0,-999.0,50,-99.99,,,0.00,weatherlink.com 1.10,2013-01-18 05:57:00,
2013-01-18 01:12:00,14.3,-1.0,30.07,NE,38,4.0,-999.0,50,-99.99,,,0.00,weatherlink.com 1.10,2013-01-18 06:12:00,
2013-01-18 01:27:00,13.8,-2.0,30.06,NE,39,3.0,-999.0,50,-99.99,,,0.00,weatherlink.com 1.10,2013-01-18 06:27:00,
2013-01-18 01:42:00,13.5,-2.0,30.03,NNE,30,4.0,-999.0,50,-99.99,,,0.00,weatherlink.com 1.10,2013-01-18 06:42:00,
2013-01-18 01:57:00,13.2,-2.0,30.05,NE,49,3.0,-999.0,52,-99.99,,,0.00,weatherlink.com 1.10,2013-01-18 06:57:00,
2013-01-18 02:12:00,13.0,-1.0,30.05,NNE,22,4.0,-999.0,54,-99.99,,,0.00,weatherlink.com 1.10,2013-01-18 07:12:00,
2013-01-18 02:27:00,12.7,-2.0,30.06,North,11,7.0,-999.0,52,-99.99,,,0.00,weatherlink.com 1.10,2013-01-18 07:27:00,
2013-01-18 02:42:00,12.6,-2.0,30.08,NE,40,5.0,-999.0,52,-99.99,,,0.00,weatherlink.com 1.10,2013-01-18 07:42:00,
2013-01-18 02:57:00,12.6,-1.0,30.07,North,5,8.0,-999.0,54,-99.99,,,0.00,weatherlink.com 1.10,2013-01-18 07:57:00,
2013-01-18 03:12:00,12.3,-2.0,30.07,NNE,31,2.0,-999.0,53,-99.99,,,0.00,weatherlink.com 1.10,2013-01-18 08:12:00,
2013-01-18 03:27:00,12.3,-1.0,30.08,NNE,16,3.0,-999.0,55,-99.99,,,0.00,weatherlink.com 1.10,2013-01-18 08:27:00,
2013-01-18 03:42:00,11.9,-1.0,30.07,NNE,21,2.0,-999.0,56,-99.99,,,0.00,weatherlink.com 1.10,2013-01-18 08:42:00,
2013-01-18 03:57:00,11.7,-1.0,30.05,NNE,15,3.0,-999.0,57,-99.99,,,0.00,weatherlink.com 1.10,2013-01-18 08:57:00,
2013-01-18 04:12:00,11.3,-2.0,30.05,North,9,7.0,-999.0,56,-99.99,,,0.00,weatherlink.com 1.10,2013-01-18 09:12:00,
2013-01-18 04:27:00,11.0,-2.0,30.07,NE,36,5.0,-999.0,57,-99.99,,,0.00,weatherlink.com 1.10,2013-01-18 09:27:00,
2013-01-18 04:42:00,10.7,-1.0,30.09,NE,35,5.0,-999.0,59,-99.99,,,0.00,weatherlink.com 1.10,2013-01-18 09:42:00,
2013-01-18 04:57:00,10.3,-2.0,30.07,NE,53,3.0,-999.0,57,-99.99,,,0.00,weatherlink.com 1.10,2013-01-18 09:57:00,
2013-01-18 05:12:00,10.0,-2.0,30.08,NE,43,2.0,-999.0,58,-99.99,,,0.00,weatherlink.com 1.10,2013-01-18 10:12:00,
2013-01-18 05:27:00,9.6,-3.0,30.10,North,11,7.0,-999.0,58,-99.99,,,0.00,weatherlink.com 1.10,2013-01-18 10:27:00,
2013-01-18 05:42:00,9.3,-3.0,30.10,NE,36,5.0,-999.0,59,-99.99,,,0.00,weatherlink.com 1.10,2013-01-18 10:42:00,
2013-01-18 05:57:00,8.8,-3.0,30.11,NE,48,2.0,-999.0,59,-99.99,,,0.00,weatherlink.com 1.10,2013-01-18 10:57:00,
2013-01-18 06:12:00,8.5,-3.0,30.11,NNE,26,5.0,-999.0,59,-99.99,,,0.00,weatherlink.com 1.10,2013-01-18 11:12:00,
2013-01-18 06:27:00,8.2,-3.0,30.11,NNE,30,6.0,-999.0,60,-99.99,,,0.00,weatherlink.com 1.10,2013-01-18 11:27:00,
2013-01-18 06:42:00,8.0,-3.0,30.12,NE,38,2.0,-999.0,60,-99.99,,,0.00,weatherlink.com 1.10,2013-01-18 11:42:00,
2013-01-18 06:57:00,7.7,-4.0,30.14,NNE,17,4.0,-999.0,60,-99.99,,,0.00,weatherlink.com 1.10,2013-01-18 11:57:00,
2013-01-18 07:12:00,7.5,-4.0,30.14,NE,34,0.0,-999.0,61,-99.99,,,0.00,weatherlink.com 1.10,2013-01-18 12:12:00,
2013-01-18 07:27:00,7.4,-4.0,30.16,NNE,16,2.0,-999.0,61,-99.99,,,0.00,weatherlink.com 1.10,2013-01-18 12:27:00,
2013-01-18 07:42:00,7.2,-3.0,30.17,NNE,16,3.0,-999.0,63,-99.99,,,0.00,weatherlink.com 1.10,2013-01-18 12:42:00,
2013-01-18 07:57:00,7.1,-3.0,30.18,NE,40,4.0,-999.0,64,-99.99,,,0.00,weatherlink.com 1.10,2013-01-18 12:57:00,
2013-01-18 08:12:00,6.9,-3.0,30.18,NE,39,0.0,-999.0,65,-99.99,,,0.00,weatherlink.com 1.10,2013-01-18 13:12:00,
2013-01-18 08:27:00,7.1,-2.0,30.19,NNE,13,3.0,-999.0,65,-99.99,,,0.00,weatherlink.com 1.10,2013-01-18 13:27:00,
2013-01-18 08:42:00,7.3,-3.0,30.19,NNE,23,5.0,-999.0,62,-99.99,,,0.00,weatherlink.com 1.10,2013-01-18 13:42:00,
2013-01-18 08:57:00,7.5,-4.0,30.20,NNE,28,0.0,-999.0,61,-99.99,,,0.00,weatherlink.com 1.10,2013-01-18 13:57:00,
2013-01-18 09:12:00,7.8,-4.0,30.21,NW,307,5.0,-999.0,58,-99.99,,,0.00,weatherlink.com 1.10,2013-01-18 14:12:00,
2013-01-18 09:27:00,8.1,-4.0,30.21,North,5,2.0,-999.0,57,-99.99,,,0.00,weatherlink.com 1.10,2013-01-18 14:27:00,
2013-01-18 09:42:00,8.8,-4.0,30.21,WNW,287,8.0,-999.0,55,-99.99,,,0.00,weatherlink.com 1.10,2013-01-18 14:42:00,
2013-01-18 09:57:00,9.4,-6.0,30.22,WNW,299,4.0,-999.0,49,-99.99,,,0.00,weatherlink.com 1.10,2013-01-18 14:57:00,
2013-01-18 10:12:00,10.0,-8.0,30.22,NW,314,5.0,-999.0,44,-99.99,,,0.00,weatherlink.com 1.10,2013-01-18 15:12:00,
2013-01-18 10:27:00,10.4,-9.0,30.22,NW,307,7.0,-999.0,42,-99.99,,,0.00,weatherlink.com 1.10,2013-01-18 15:27:00,
2013-01-18 10:42:00,10.6,-10.0,30.22,NNW,330,6.0,-999.0,39,-99.99,,,0.00,weatherlink.com 1.10,2013-01-18 15:42:00,
2013-01-18 10:57:00,11.0,-8.0,30.21,NW,321,9.0,-999.0,42,-99.99,,,0.00,weatherlink.com 1.10,2013-01-18 15:57:00,
2013-01-18 11:12:00,11.3,-9.0,30.21,North,349,8.0,-999.0,40,-99.99,,,0.00,weatherlink.com 1.10,2013-01-18 16:12:00,
2013-01-18 11:27:00,11.5,-10.0,30.21,NNE,24,8.0,-999.0,38,-99.99,,,0.00,weatherlink.com 1.10,2013-01-18 16:27:00,
2013-01-18 11:42:00,12.0,-8.0,30.21,WNW,288,8.0,-999.0,40,-99.99,,,0.00,weatherlink.com 1.10,2013-01-18 16:42:00,
2013-01-18 11:57:00,12.3,-8.0,30.20,NW,306,4.0,-999.0,39,-99.99,,,0.00,weatherlink.com 1.10,2013-01-18 16:57:00,
2013-01-18 12:12:00,12.9,-7.0,30.21,NNW,346,8.0,-999.0,41,-99.99,,,0.00,weatherlink.com 1.10,2013-01-18 17:12:00,
2013-01-18 12:27:00,13.7,-7.0,30.20,North,355,6.0,-999.0,40,-99.99,,,0.00,weatherlink.com 1.10,2013-01-18 17:27:00,
2013-01-18 12:42:00,13.9,-6.0,30.21,NNW,329,5.0,-999.0,41,-99.99,,,0.00,weatherlink.com 1.10,2013-01-18 17:42:00,
2013-01-18 12:57:00,14.6,-5.0,30.21,North,11,10.0,-999.0,41,-99.99,,,0.00,weatherlink.com 1.10,2013-01-18 17:57:00,
2013-01-18 13:12:00,15.0,-5.0,30.20,WNW,296,8.0,-999.0,41,-99.99,,,0.00,weatherlink.com 1.10,2013-01-18 18:12:00,
2013-01-18 13:27:00,15.3,-6.0,30.21,NNW,339,6.0,-999.0,39,-99.99,,,0.00,weatherlink.com 1.10,2013-01-18 18:27:00,
2013-01-18 13:42:00,15.6,-5.0,30.21,West,276,8.0,-999.0,40,-99.99,,,0.00,weatherlink.com 1.10,2013-01-18 18:42:00,
2013-01-18 13:57:00,15.8,-5.0,30.21,NW,326,11.0,-999.0,39,-99.99,,,0.00,weatherlink.com 1.10,2013-01-18 18:57:00,
2013-01-18 14:12:00,16.1,-5.0,30.23,North,349,2.0,-999.0,39,-99.99,,,0.00,weatherlink.com 1.10,2013-01-18 19:12:00,
2013-01-18 14:27:00,16.1,-4.0,30.23,WNW,297,7.0,-999.0,40,-99.99,,,0.00,weatherlink.com 1.10,2013-01-18 19:27:00,
2013-01-18 14:42:00,16.2,-5.0,30.24,NNW,333,6.0,-999.0,38,-99.99,,,0.00,weatherlink.com 1.10,2013-01-18 19:42:00,
2013-01-18 14:57:00,16.6,-5.0,30.24,West,278,11.0,-999.0,38,-99.99,,,0.00,weatherlink.com 1.10,2013-01-18 19:57:00,
2013-01-18 15:12:00,16.5,-6.0,30.25,WNW,291,7.0,-999.0,37,-99.99,,,0.00,weatherlink.com 1.10,2013-01-18 20:12:00,
2013-01-18 15:27:00,16.6,-5.0,30.25,WNW,283,7.0,-999.0,38,-99.99,,,0.00,weatherlink.com 1.10,2013-01-18 20:27:00,
2013-01-18 15:42:00,16.6,-5.0,30.26,WNW,296,5.0,-999.0,38,-99.99,,,0.00,weatherlink.com 1.10,2013-01-18 20:42:00,
2013-01-18 15:57:00,16.3,-6.0,30.26,West,274,7.0,-999.0,37,-99.99,,,0.00,weatherlink.com 1.10,2013-01-18 20:57:00,
2013-01-18 16:12:00,15.7,-5.0,30.26,WNW,289,5.0,-999.0,39,-99.99,,,0.00,weatherlink.com 1.10,2013-01-18 21:12:00,
2013-01-18 16:27:00,14.9,-5.0,30.25,WNW,285,1.0,-999.0,41,-99.99,,,0.00,weatherlink.com 1.10,2013-01-18 21:27:00,
2013-01-18 16:42:00,14.3,-3.0,30.25,WNW,285,0.0,-999.0,46,-99.99,,,0.00,weatherlink.com 1.10,2013-01-18 21:42:00,
2013-01-18 16:57:00,13.0,-2.0,30.25,WNW,285,0.0,-999.0,52,-99.99,,,0.00,weatherlink.com 1.10,2013-01-18 21:57:00,
2013-01-18 17:12:00,11.8,-1.0,30.26,WNW,285,0.0,-999.0,57,-99.99,,,0.00,weatherlink.com 1.10,2013-01-18 22:12:00,
2013-01-18 17:27:00,11.6,-1.0,30.27,WNW,285,0.0,-999.0,57,-99.99,,,0.00,weatherlink.com 1.10,2013-01-18 22:27:00,
2013-01-18 17:42:00,11.6,-1.0,30.28,WNW,285,0.0,-999.0,56,-99.99,,,0.00,weatherlink.com 1.10,2013-01-18 22:42:00,
2013-01-18 17:57:00,11.5,-1.0,30.28,WNW,285,0.0,-999.0,57,-99.99,,,0.00,weatherlink.com 1.10,2013-01-18 22:57:00,
2013-01-18 18:12:00,11.1,-4.0,30.29,WNW,285,5.0,-999.0,52,-99.99,,,0.00,weatherlink.com 1.10,2013-01-18 23:12:00,
2013-01-18 18:27:00,12.3,-3.0,30.29,WNW,285,2.0,-999.0,50,-99.99,,,0.00,weatherlink.com 1.10,2013-01-18 23:27:00,
2013-01-18 18:42:00,12.3,-2.0,30.29,WNW,285,0.0,-999.0,53,-99.99,,,0.00,weatherlink.com 1.10,2013-01-18 23:42:00,
2013-01-18 18:57:00,11.7,-2.0,30.30,WNW,285,0.0,-999.0,54,-99.99,,,0.00,weatherlink.com 1.10,2013-01-18 23:57:00,
2013-01-18 19:12:00,11.3,-1.0,30.29,WNW,285,1.0,-999.0,59,-99.99,,,0.00,weatherlink.com 1.10,2013-01-19 00:12:00,
2013-01-18 19:27:00,11.9,-2.0,30.30,WNW,285,4.0,-999.0,54,-99.99,,,0.00,weatherlink.com 1.10,2013-01-19 00:27:00,
2013-01-18 19:42:00,13.0,-2.0,30.30,WSW,238,6.0,-999.0,52,-99.99,,,0.00,weatherlink.com 1.10,2013-01-19 00:42:00,
2013-01-18 19:57:00,13.7,-2.0,30.31,WSW,243,5.0,-999.0,51,-99.99,,,0.00,weatherlink.com 1.10,2013-01-19 00:57:00,
2013-01-18 20:12:00,14.2,-1.0,30.31,WSW,244,3.0,-999.0,50,-99.99,,,0.00,weatherlink.com 1.10,2013-01-19 01:12:00,
2013-01-18 20:27:00,14.3,-2.0,30.31,WSW,244,1.0,-999.0,49,-99.99,,,0.00,weatherlink.com 1.10,2013-01-19 01:27:00,
2013-01-18 20:42:00,13.8,-1.0,30.32,WSW,244,5.0,-999.0,51,-99.99,,,0.00,weatherlink.com 1.10,2013-01-19 01:42:00,
2013-01-18 20:57:00,14.1,-2.0,30.32,WSW,245,5.0,-999.0,49,-99.99,,,0.00,weatherlink.com 1.10,2013-01-19 01:57:00,
2013-01-18 21:12:00,14.3,-2.0,30.32,WSW,246,2.0,-999.0,48,-99.99,,,0.00,weatherlink.com 1.10,2013-01-19 02:12:00,
2013-01-18 21:27:00,13.7,-2.0,30.32,WSW,245,3.0,-999.0,50,-99.99,,,0.00,weatherlink.com 1.10,2013-01-19 02:27:00,
2013-01-18 21:42:00,13.1,-1.0,30.32,WSW,245,0.0,-999.0,54,-99.99,,,0.00,weatherlink.com 1.10,2013-01-19 02:42:00,
2013-01-18 21:57:00,13.0,-1.0,30.31,WSW,245,3.0,-999.0,54,-99.99,,,0.00,weatherlink.com 1.10,2013-01-19 02:57:00,
2013-01-18 22:12:00,13.5,0.0,30.31,WSW,245,2.0,-999.0,54,-99.99,,,0.00,weatherlink.com 1.10,2013-01-19 03:12:00,
2013-01-18 22:27:00,13.2,0.0,30.31,WSW,245,0.0,-999.0,55,-99.99,,,0.00,weatherlink.com 1.10,2013-01-19 03:27:00,
2013-01-18 22:42:00,12.5,1.0,30.30,WSW,245,1.0,-999.0,59,-99.99,,,0.00,weatherlink.com 1.10,2013-01-19 03:42:00,
2013-01-18 22:57:00,12.7,2.0,30.30,WSW,245,1.0,-999.0,61,-99.99,,,0.00,weatherlink.com 1.10,2013-01-19 03:57:00,
2013-01-18 23:12:00,14.0,3.0,30.30,WSW,243,4.0,-999.0,61,-99.99,,,0.00,weatherlink.com 1.10,2013-01-19 04:12:00,
2013-01-18 23:27:00,15.0,3.0,30.29,WSW,244,2.0,-999.0,60,-99.99,,,0.00,weatherlink.com 1.10,2013-01-19 04:27:00,
2013-01-18 23:42:00,14.8,4.0,30.29,WSW,244,0.0,-999.0,62,-99.99,,,0.00,weatherlink.com 1.10,2013-01-19 04:42:00,
2013-01-18 23:57:00,14.9,5.0,30.28,WSW,244,2.0,-999.0,64,-99.99,,,0.00,weatherlink.com 1.10,2013-01-19 04:57:00,